PEGASUS DEB, 24817

Orbit data source: Space-Track

PEGASUS DEB, 24817 is space debris in LEO originally from a launch on Thu, 19 May 1994 UTC launched from the Air Force Western Test Range (AFWTR). Debris objects in space refer to the collection of defunct objects orbiting the Earth. Examples of debris include non-operational satellites, rocket bodies, and fragments generated from explosions, collisions, or faulty payload assembly.

Loading next visibility...
Identifier
24817, 1994-029ABU
Orbit
LEO
Country
Flag of USUS
Related business
Manufacturer
Unknown
Mission
Spacecraft
Bus & Motor
Unknown
Mass
Unknown
Launch date (UTC)
1994-05-19 (32 years ago)
Launch vehicle
Unknown
Launch site
Air Force Western Test Range (AFWTR)
Object type
Payload
Rocket body
Debris
Shape & HBR
Unknown shape, 0.1 m
Radar Cross Section
Medium (>0.1 m² and <1 m²)

Expand to show TLE details & history
Last TLE update: 2 days ago

TLE from 2 days ago
0 PEGASUS DEB
1 24817U 94029ABU 26235.16918116  .00002058  00000-0  50015-3 0  9996
2 24817  81.6887 295.4703 0356603 247.6459 138.5851 14.20435366530195
Epoch: 2026-08-23T04:03Z
TLE epoch observation values (Epoch: 2026-08-23T04:03:37.252Z)
Latitude
28.55758°
Longitude
-92.36718°
Altitude
1,023.906 km
Speed
7.241 km/s
True Right ascension
20h 00m 01s
True Declination
28° 25' 07"
Sunlit
Object was in full shadow at epoch
Visualization orbit readout
Latitude
Unknown
Longitude
Unknown
Altitude
Unknown
Speed
Unknown
Apparent Right ascension
Unknown
Apparent Declination
Unknown
Sunlit
N/A
Visualization observer readout
Local Sidereal Time
15:06:51
Azimuth
Unknown
Elevation
Unknown
Doppler factor
Unknown
Orbital elements
Apogee altitude
1,077.739 km
Perigee altitude
564.291 km
Semi-major axis
7,199.152 km
Eccentricity
0.03566
Inclination
81.6887°
RAAN
295.4703°
Arg. of periapsis
247.6459°
True anomaly
141.19981°
Mean anomaly
138.5851°
Eccentric anomaly
139.90113°
Mean motion
3.55321 °/min
Orbital period
101.32 mins
BSTAR
0.00050015
Loading maneuver chart data...
Computing Atmospheric mass density...

Documentation

Showing up to 5 results
|